一网星座-0364星 (ONEWEB-0364 )

导读 | 豆包AI

ONEWEB-0364是英国OneWeb卫星星座的组网卫星,于2021年10月14日发射入轨。OneWeb是全球第二大低轨卫星星座,聚焦提供高速低延迟的全球互联网服务,重点覆盖偏远地区实现全域网络接入。作为星座的组成部分,该卫星支撑OneWeb构建覆盖全球的低轨通信网络,助力提升全球宽带接入的普及性,推动卫星互联网基础设施建设。

基本信息
目录编号:
49290
目录名称:
ONEWEB-0364
国际标识:
2021-090M
轨道中心:
EARTH
卫星名称:
一网星座-0364星
卫星全名:
一网星座-0364星 (ONEWEB-0364 )
卫星状态:
在轨 (已飞行1659 天)
发射日期:
2021-10-14 UTC
国别 :
英国 (GB)
星等 :
--
轨道信息
数据来源 国际轨道数据 AOE轨道数据
星历时间 2026-04-30T06:41:25+0800
10小时前
查看轨道信息
2026-04-27T11:00:00+0800
3天前
查看轨道信息
半长轴 7559.916km 7559.924km
偏心率 0.0001766 0.0001838
轨道倾角 87.914° 87.914°
近地点辐角 95.518° 89.692°
升交点赤经 284.075° 284.638°
平近点角 264.615° 187.611°
近地点 1180.443km 1180.397km
远地点 1183.115km 1183.177km
周期 109.027分钟 109.027分钟
每日圈数 13.207704 13.207683
详细信息
平衡模式:
三轴稳定
覆盖范围:
全球
运营商:
一网卫星公司
运营商所在国:
英国
制造商(研发单位):
一网卫星公司
制造商所在国:
英国
使用方式:
暂无
卫星简介
OneWeb卫星网络由648颗重约125公斤的微型卫星组成,运行在1200公里的轨道上。 每颗卫星都能够提供至少每秒8千兆位的吞吐量,以使用其高吞吐量的Ku频段有效载荷为家庭和移动平台提供互联网接入。该卫星仍在工作。
2D轨道图
3D轨道图
轨道高度分析图
轨道倾角分析图
轨道综合分析图
查看轨道综合分析图